Date,TemperatureHighF,TemperatureAvgF,TemperatureLowF,DewpointHighF,DewpointAvgF,DewpointLowF,HumidityHigh,HumidityAvg,HumidityLow,PressureMaxIn,PressureMinIn,WindSpeedMaxMPH,WindSpeedAvgMPH,GustSpeedMaxMPH,PrecipitationSumIn
2014-1-4,30,13,10,20,0,-2,65,55,54,30.14,29.79,0,0,0,0.00
2014-1-5,10,8,6,-2,-5,-7,55,52,51,30.20,30.14,2,0,4,0.00
2014-2-15,22,17,13,6,2,-2,71,52,39,30.07,29.97,0,0,4,0.00
2014-2-16,24,12,1,6,1,-9,72,60,45,30.36,29.98,1,0,7,0.00
2014-2-17,27,17,2,18,10,-7,81,72,65,30.33,29.76,0,0,8,0.00
2014-2-18,38,22,8,28,15,0,82,73,61,29.86,29.58,3,0,6,0.06
2014-2-19,44,33,25,25,21,17,84,63,46,29.91,29.62,3,0,9,0.00
2014-2-20,38,33,28,34,26,17,89,76,62,29.91,28.93,0,0,2,0.29
2014-2-21,35,23,16,32,14,3,89,68,55,29.63,28.92,17,1,27,0.02
2014-2-22,25,17,11,6,2,-1,60,52,43,30.01,29.63,0,0,1,0.32
2014-2-23,10,7,5,-1,-5,-8,57,54,53,30.09,30.00,0,0,0,0.00
2014-2-24,20,14,9,6,-4,-6,57,43,34,30.23,29.54,0,0,0,0.00
2014-2-25,13,8,0,-5,-9,-17,54,44,33,30.22,30.08,0,0,0,0.00
2014-3-9,39,37,30,29,24,14,70,59,46,29.93,29.66,0,0,0,0.00
2014-3-10,58,43,29,35,30,23,81,61,39,29.67,29.45,0,0,0,0.00
2014-3-11,50,42,30,31,28,21,68,58,41,29.91,29.61,0,0,0,0.00
2014-3-12,30,19,7,21,1,-10,68,45,29,30.19,29.89,0,0,1,0.00
2014-3-13,7,4,0,-9,-12,-14,50,47,44,30.18,30.11,0,0,0,0.00
2014-3-15,34,21,12,14,5,-1,56,50,39,30.52,29.99,0,0,0,0.00
2014-3-16,22,12,3,-1,-7,-11,56,43,26,30.58,30.24,1,0,4,0.00
2014-3-17,30,21,8,15,7,-3,66,55,42,30.23,29.82,0,0,0,0.00
2014-3-18,38,31,24,29,22,14,80,69,60,29.93,29.66,0,0,1,0.00
2014-3-19,43,34,31,35,28,22,89,80,66,29.88,29.65,4,0,8,0.10
2014-3-20,42,33,25,23,19,14,69,57,42,30.05,29.88,0,0,0,0.00
2014-3-21,44,32,19,29,22,11,80,67,50,30.05,29.78,0,0,0,0.00
2014-3-22,35,28,15,27,12,-2,83,52,31,30.44,29.86,0,0,1,0.00
2014-3-23,27,17,8,4,0,-5,58,45,32,30.49,30.36,0,0,0,0.00
2014-3-24,32,21,7,18,6,-6,74,52,33,30.39,30.02,0,0,0,0.00
2014-3-25,26,19,13,14,1,-7,74,46,30,30.24,29.99,0,0,0,0.00
2014-3-26,34,22,8,22,7,-6,77,51,41,30.29,29.95,0,0,1,0.00
2014-3-27,42,35,28,34,30,22,89,81,71,29.95,29.49,5,0,11,0.38
2014-3-28,43,35,30,31,26,22,90,71,47,30.26,29.49,0,0,0,0.04
2014-3-29,45,34,25,24,19,12,75,56,36,30.34,30.24,0,0,0,0.00
2014-3-30,54,37,20,35,22,12,75,57,45,30.29,29.99,10,0,17,0.00
2014-3-31,54,48,32,36,32,26,80,56,43,30.05,29.60,0,0,1,0.00
2014-4-1,49,35,28,36,24,16,73,63,54,30.06,29.50,10,0,17,0.00
2014-4-2,46,34,23,23,18,12,67,53,36,30.25,30.06,0,0,0,0.00
2014-4-3,34,32,28,25,22,19,72,66,61,30.24,29.80,0,0,1,0.00
2014-4-4,34,32,30,30,27,23,88,82,68,29.93,29.47,0,0,0,0.16
2014-4-5,50,37,24,31,24,16,75,61,41,30.15,29.93,0,0,0,0.15
2014-4-6,59,47,33,38,32,23,68,57,43,30.09,29.87,4,0,11,0.00
2014-4-7,63,49,35,43,36,27,79,64,41,29.92,29.66,0,0,0,0.01
2014-4-8,58,46,33,39,32,19,84,61,30,29.97,29.67,2,0,7,0.00
2014-4-9,61,46,29,35,28,20,74,52,29,29.98,29.59,13,0,17,0.00
2014-4-10,63,54,40,38,29,20,57,41,23,29.94,29.51,19,0,27,0.00
2014-4-11,58,45,33,45,32,20,88,63,35,30.05,29.94,6,0,9,0.02
2014-4-12,44,41,38,40,38,36,99,89,76,30.06,29.78,4,0,6,0.24
2014-4-13,52,43,37,46,41,36,99,92,76,29.83,29.64,18,3,30,0.80
2014-4-14,38,31,22,37,27,14,97,85,71,30.07,29.57,15,1,20,0.07
2014-4-15,34,26,16,20,13,9,77,60,43,30.23,30.06,8,0,19,0.17
2014-4-16,40,32,22,30,23,13,80,69,56,30.33,30.18,0,0,5,0.71
2014-4-17,51,41,34,40,33,28,89,75,60,30.32,30.11,7,0,15,0.10
2014-4-18,52,40,30,32,27,23,82,63,39,30.46,30.31,0,0,2,0.00
2014-4-19,58,44,29,39,31,23,87,64,37,30.50,30.17,3,0,11,0.00
2014-4-20,58,53,49,51,46,38,90,76,58,30.17,30.00,8,1,11,0.19
2014-4-21,71,58,46,60,51,31,95,80,42,30.00,29.72,10,1,14,0.06
2014-4-22,50,44,33,32,29,23,71,56,43,30.16,29.91,0,0,4,0.00
2014-4-23,52,41,28,29,21,11,78,48,25,30.23,30.13,0,0,0,0.00
2014-4-24,42,40,38,39,32,15,94,75,34,30.15,29.75,15,2,21,0.41
2014-4-25,62,48,38,45,38,31,94,71,42,29.88,29.68,8,0,11,0.02
2014-4-26,49,41,33,34,30,22,77,64,53,30.21,29.88,0,0,4,0.00
2014-4-27,43,39,34,34,29,22,79,67,56,30.23,30.02,0,0,1,0.05
2014-4-28,43,42,42,32,29,27,64,58,54,30.04,29.97,0,0,2,0.00
2014-5-3,60,54,42,41,33,27,68,47,33,29.85,29.66,0,0,1,0.90
2014-5-4,60,48,38,36,32,27,77,56,29,30.17,29.84,0,0,1,0.00
2014-5-5,56,44,37,41,35,30,90,72,43,30.18,30.04,0,0,0,0.02
2014-5-6,57,46,34,38,33,30,90,63,39,30.16,30.03,0,0,0,0.00
2014-5-7,50,46,41,45,40,31,88,78,64,30.15,29.91,0,0,1,0.28
2014-5-8,68,56,46,56,49,43,90,79,65,29.92,29.67,0,0,0,0.04
2014-5-9,73,62,52,63,53,41,89,72,52,29.77,29.49,5,0,11,0.02
2014-5-10,74,60,46,44,37,30,79,47,22,29.96,29.76,0,0,1,0.00
2014-5-11,78,63,53,56,50,43,88,64,43,29.99,29.88,0,0,0,0.00
2014-5-12,60,54,48,60,53,47,99,96,81,29.98,29.81,9,0,11,0.68
2014-5-13,60,55,49,55,48,42,99,80,60,30.13,29.70,13,0,16,0.00
2014-5-14,77,53,43,54,39,32,88,62,32,30.22,29.88,0,0,4,0.67
2014-5-15,52,45,36,37,33,30,85,65,55,30.17,30.00,1,0,4,0.00
2014-5-16,54,44,31,38,32,27,84,65,41,30.11,30.02,0,0,2,0.00
2014-5-17,65,51,34,40,34,26,96,58,26,30.08,29.97,0,0,1,0.00
2014-5-18,75,60,45,47,41,36,74,52,29,30.14,30.04,0,0,3,0.00
2014-5-19,71,57,49,50,45,41,98,68,34,30.20,30.01,8,0,12,0.65
2014-5-20,58,52,50,54,50,49,99,95,84,30.02,29.85,0,0,0,0.12
2014-5-21,79,71,57,63,53,47,99,55,36,30.02,29.78,0,0,1,0.00
2014-5-22,69,60,49,51,48,46,95,67,47,30.21,30.02,0,0,0,0.00
2014-5-23,73,59,45,50,46,42,97,66,37,30.26,30.17,0,0,0,0.00
2014-5-24,81,65,47,54,49,45,95,60,34,30.26,30.09,0,0,0,0.00
2014-5-25,84,70,54,55,51,46,77,53,32,30.17,29.95,1,0,7,0.00
2014-5-26,86,74,62,71,63,51,97,70,51,30.02,29.81,0,0,1,0.20
2014-5-27,76,68,60,66,59,44,99,76,52,30.04,29.87,0,0,0,0.02
2014-5-28,71,60,52,53,48,40,87,65,51,30.17,30.03,0,0,0,0.00
2014-5-29,75,63,48,59,54,47,97,75,55,30.21,30.11,0,0,2,0.01
2014-5-30,89,70,49,61,56,48,99,68,36,30.25,30.11,0,0,0,0.00
2014-5-31,89,73,52,62,57,51,98,61,34,30.25,30.01,0,0,1,0.00
2014-6-1,87,71,65,69,62,53,96,74,54,30.06,29.85,0,0,5,0.55
2014-6-2,68,66,64,67,64,61,96,92,88,30.24,29.85,0,0,0,0.00
2014-6-3,64,64,64,61,61,61,88,88,88,30.24,30.24,0,0,0,0.00
2014-6-21,71,68,62,67,65,62,99,91,83,29.93,29.03,0,0,0,0.01
2014-6-22,65,65,65,65,65,65,99,99,99,29.93,29.93,0,0,0,0.00
2014-7-9,65,65,65,65,65,65,99,99,99,29.93,29.93,0,0,0,0.00
2014-9-29,44,44,44,41,41,41,91,90,88,29.31,29.30,0,0,0,0.26
2014-9-30,44,43,42,42,41,37,96,93,91,29.49,28.79,0,0,115,0.00
2014-11-15,25,22,21,15,15,9,77,73,51,30.22,30.16,9,5,13,0.00
2014-11-16,28,23,15,19,14,2,80,71,54,30.16,29.78,17,7,22,0.00
2014-11-17,20,13,8,4,0,-2,68,57,45,29.82,29.66,23,10,32,0.00
2014-11-18,20,14,10,4,0,-4,60,54,43,30.02,29.77,21,10,30,0.00
2014-11-19,24,18,13,14,8,2,75,63,55,29.96,29.61,20,7,24,0.00
2014-11-20,20,14,8,7,-1,-8,68,52,39,30.32,29.82,19,7,26,0.00
2014-11-21,30,18,4,14,2,-8,62,49,41,30.45,29.94,16,7,26,0.00
2014-11-22,111,36,30,36,30,-11,92,79,50,29.95,29.59,73,7,138,0.00
2014-11-23,50,46,38,48,44,36,94,93,91,29.67,29.04,11,3,17,0.15
2014-11-24,44,37,25,42,34,21,94,91,85,29.63,28.91,11,3,16,0.45
2014-11-25,26,21,8,21,16,1,86,79,72,30.22,29.63,11,4,17,0.00
2014-11-26,29,18,6,22,11,-1,83,75,67,30.24,30.01,6,1,188,0.00
2014-11-27,24,15,0,18,4,-11,80,62,44,30.45,30.19,11,3,16,0.00
2014-11-28,22,15,0,18,8,-10,82,72,62,30.44,29.83,6,2,8,0.00
2014-11-29,43,32,21,36,27,16,90,82,72,29.83,29.38,8,2,11,0.13
2014-11-30,35,27,11,30,18,-3,88,70,49,30.38,29.44,14,5,19,0.01
2014-12-1,13,6,-2,-3,-10,-17,59,46,34,30.79,30.37,11,4,18,0.00
2014-12-2,31,20,3,19,9,-9,78,64,53,30.68,29.92,13,4,17,0.00
2014-12-3,25,21,12,17,8,0,74,59,48,30.38,29.89,21,8,26,0.00
2014-12-4,28,19,7,14,6,-5,70,57,39,30.48,30.27,5,1,8,0.00
2014-12-5,38,28,13,30,21,5,83,74,68,30.30,30.09,10,2,12,0.00
2014-12-6,34,25,11,24,14,4,81,66,47,30.74,30.30,9,2,15,0.00
2014-12-7,37,25,10,26,17,1,77,70,62,30.75,30.16,9,2,11,0.00
2014-12-8,36,33,31,31,29,25,87,83,71,30.16,29.88,12,3,17,0.01
2014-12-9,34,30,24,31,22,17,86,75,67,30.45,30.07,11,4,18,0.11
2014-12-10,28,23,15,18,15,8,76,72,64,30.45,30.28,7,2,10,0.00
2014-12-11,30,20,10,20,12,4,81,73,62,30.28,30.10,15,6,19,0.00
2014-12-12,35,30,23,30,25,18,86,82,79,30.22,30.09,16,7,23,0.00
2014-12-13,41,38,33,38,34,29,92,88,84,30.09,29.91,16,9,23,0.05
2014-12-14,43,40,38,40,38,36,93,91,89,29.96,29.86,11,2,15,0.00
2014-12-15,45,43,41,42,41,39,93,92,91,29.86,29.63,8,2,11,0.07
2014-12-16,41,34,26,39,30,18,94,87,72,30.04,29.59,11,2,17,0.35
2014-12-17,27,25,23,19,15,13,74,65,55,30.24,30.04,17,4,21,0.00
2014-12-18,32,25,16,21,16,9,74,68,55,30.30,30.19,9,2,15,0.00
2014-12-19,34,22,14,24,14,8,79,72,63,30.35,30.22,7,1,8,0.00
2014-12-20,32,25,16,25,19,9,82,76,73,30.30,30.17,3,0,4,0.00
2014-12-21,37,33,29,30,28,24,82,79,73,30.17,29.89,12,3,17,0.00
2014-12-22,38,35,33,34,30,28,87,80,73,29.90,29.66,12,5,15,0.01
2014-12-23,40,37,33,38,34,30,93,90,87,29.69,29.53,12,4,17,0.46
2014-12-24,37,34,33,34,31,30,89,88,87,29.67,29.41,13,2,17,0.05